Вернуться в каталог

YUNYAO-1 47

АктивенПогодаSSO
NORAD 63348·PAYLOAD·🇨🇳 China

Запущен Mar 21, 2025 с Jiuquan Satellite Launch Center

Loading…

Ближайшие Пролёты (ближайшие 24 часа)

TLE

СвежийSource: Space-Track

Эпоха: Sep 14, 2026, 14:25 UTC

1 63348U 25059E   26257.60134444  .00002646  00000-0  15920-3 0  9991
2 63348  97.6124  78.5893 0015022 206.7800 153.2656 15.11640900 81800

Отслеживайте YUNYAO-1 47 в реальном времени с AllMySat

Download on the App Store